Lovelock, NV

11:28 AM PDT on May 24, 2017 (GMT -0700)
Derby

Weather History for KLOL - February, 2012

Change the Weather History Date:

Friday, February 24, 2012

  Actual Average Record
Temperature  
Mean Temperature 36 °F -  
Max Temperature 57 °F 52 °F 73 °F (1954)
Min Temperature 16 °F 23 °F 1 °F (1960)
Degree Days  
Heating Degree Days 28    
Moisture  
Dew Point 13 °F    
Average Humidity 35    
Maximum Humidity 62    
Minimum Humidity 14    
Precipitation  
Precipitation 0.00 in - - ()
Sea Level Pressure  
Sea Level Pressure 30.12 in    
Wind  
Wind Speed 3 mph (WSW)    
Max Wind Speed 15 mph    
Max Gust Speed 24 mph    
Visibility 8 miles    
Events      
Averages and records for this station are not official NWS values.
T = Trace of Precipitation, MM = Missing Value Source: NWS Daily Summary

Daily Weather History Graph

Daily Weather History Graph

Search for Another Location

Airport or City:

Trip Planner

Search our weather history database for the weather conditions in past years. The results will help you decide how hot, cold, wet, or windy it might be!

Date:

Astronomy

Feb. 24, 2012 Rise Set
Actual Time 6:35 AM PST 5:40 PM PST
Civil Twilight 6:08 AM PST 6:07 PM PST
Nautical Twilight 5:36 AM PST 6:38 PM PST
Astronomical Twilight 5:05 AM PST 7:10 PM PST
Moon 7:32 AM PST 8:48 PM PST
Length of Visible Light 11h 59m
Length of Day
11h 04m
Waxing Crescent, 8% of the Moon is Illuminated
Feb 24
Waxing Crescent
Feb 29
First Quarter
Mar 8
Full
Mar 14
Last Quarter
Mar 22
New

Hourly Weather History & Observations

Time (PST) Temp. Windchill Dew Point Humidity Pressure Visibility Wind Dir Wind Speed Gust Speed Precip Events Conditions
12:53 AM 21.9 °F - 7.0 °F 53% 30.32 in 10.0 mi Calm Calm - N/A   Clear
1:53 AM 23.0 °F 18.4 °F 8.1 °F 53% 30.31 in 10.0 mi NE 3.5 mph - N/A   Clear
2:53 AM 19.0 °F - 6.1 °F 57% 30.31 in 10.0 mi Calm Calm - N/A   Clear
3:53 AM 19.0 °F 13.9 °F 6.1 °F 57% 30.31 in 10.0 mi North 3.5 mph - N/A   Clear
4:53 AM 18.0 °F 11.1 °F 6.1 °F 60% 30.33 in 10.0 mi ESE 4.6 mph - N/A   Clear
5:53 AM 16.0 °F - 5.0 °F 62% 30.35 in 10.0 mi Calm Calm - N/A   Clear
6:53 AM 17.1 °F - 6.1 °F 62% 30.36 in 10.0 mi Calm Calm - N/A   Clear
7:53 AM 27.0 °F - 10.9 °F 51% 30.37 in 10.0 mi Calm Calm - N/A   Clear
8:53 AM 33.1 °F - 14.0 °F 46% 30.36 in 10.0 mi Calm Calm - N/A   Clear
9:53 AM 42.1 °F - 12.0 °F 29% 30.33 in 10.0 mi Calm Calm - N/A   Clear
10:53 AM 48.9 °F - 14.0 °F 25% 30.29 in 10.0 mi Variable 4.6 mph - N/A   Clear
11:53 AM 52.0 °F - 14.0 °F 22% 30.25 in 10.0 mi WSW 5.8 mph - N/A   Clear
12:53 PM 53.1 °F - 12.0 °F 20% 30.21 in 10.0 mi Variable 4.6 mph - N/A   Clear
1:53 PM 55.9 °F - 10.9 °F 17% 30.16 in 10.0 mi SW 5.8 mph - N/A   Clear
2:53 PM 57.9 °F - 9.0 °F 14% 30.12 in 10.0 mi Variable 3.5 mph - N/A   Clear
3:53 PM 57.9 °F - 10.9 °F 16% 30.08 in 10.0 mi Calm Calm - N/A   Clear
4:53 PM 55.9 °F - 12.0 °F 18% 30.06 in 10.0 mi West 5.8 mph - N/A   Clear
5:53 PM 50.0 °F - 10.9 °F 21% 30.06 in 10.0 mi South 4.6 mph - N/A   Clear
6:53 PM 41.0 °F 37.1 °F 12.9 °F 32% 30.06 in 10.0 mi South 5.8 mph - N/A   Clear
7:53 PM 41.0 °F 39.0 °F 12.0 °F 31% 30.02 in 10.0 mi SW 3.5 mph - N/A   Clear
8:53 PM 35.1 °F 31.0 °F 12.9 °F 40% 29.99 in 10.0 mi SW 4.6 mph - N/A   Clear
9:53 PM 37.0 °F 31.0 °F 15.1 °F 41% 29.93 in 10.0 mi WNW 8.1 mph - N/A   Clear
10:42 PM 42.8 °F 40.1 °F 17.6 °F 36% 29.88 in 7.0 mi Variable 4.6 mph - N/A   Mostly Cloudy
10:46 PM 46.4 °F 41.9 °F 17.6 °F 32% 29.89 in 1.8 mi NW 9.2 mph - N/A   Haze
10:53 PM 51.1 °F - 19.0 °F 28% 29.88 in 1.0 mi NW 9.2 mph 17.3 mph N/A   Haze
10:59 PM 48.2 °F - 17.6 °F 30% 29.90 in 3.0 mi West 9.2 mph 17.3 mph N/A   Haze
11:24 PM 53.6 °F - 19.4 °F 26% 29.87 in 1.8 mi SW 15.0 mph 24.2 mph N/A   Haze
11:29 PM 51.8 °F - 19.4 °F 28% 29.87 in 0.8 mi SW 11.5 mph - N/A   Haze
11:47 PM 51.8 °F - 19.4 °F 28% 29.87 in 2.5 mi West 10.4 mph - N/A   Haze
11:53 PM 51.1 °F - 19.0 °F 28% 29.83 in 3.0 mi West 6.9 mph - N/A   Haze